This is the latest recevied weather packets stored in our database for station/object W0VI. If no packets are shown the sender has not sent any weather packets the latest 10 day(s).
| Time | Temp. | Humidity | Pressure | Rain* | Wind** | Luminosity | Snow |
|---|---|---|---|---|---|---|---|
| 1787521967 | 26.11° C | 45% | 1017.3 hPa | 0 mm | - | 339 W/m² | - |
| 1787521665 | 26.67° C | 45% | 1017.2 hPa | 0 mm | - | 356 W/m² | - |
| 1787521360 | 25.56° C | 47% | 1017.4 hPa | 0 mm | - | 383 W/m² | - |
| 1787521054 | 25.56° C | 47% | 1017.3 hPa | 0 mm | - | 378 W/m² | - |
| 1787520750 | 25.56° C | 45% | 1017.4 hPa | 0 mm | - | 383 W/m² | - |
| 1787520445 | 25.56° C | 45% | 1017.3 hPa | 0 mm | - | 372 W/m² | - |
| 1787520142 | 26.11° C | 45% | 1017.4 hPa | 0 mm | - | 382 W/m² | - |
| 1787519837 | 26.67° C | 43% | 1017.5 hPa | 0 mm | - | 397 W/m² | - |
| 1787519532 | 26.11° C | 46% | 1017.7 hPa | 0 mm | - | 398 W/m² | - |
| 1787519227 | 25.56° C | 45% | 1017.5 hPa | 0 mm | - | 412 W/m² | - |
| 1787518922 | 26.11° C | 44% | 1017.7 hPa | 0 mm | - | 417 W/m² | - |
| 1787518616 | 26.11° C | 46% | 1017.7 hPa | 0 mm | - | 433 W/m² | - |
| 1787518312 | 26.11° C | 45% | 1017.9 hPa | 0 mm | - | 441 W/m² | - |
| 1787518008 | 26.67° C | 45% | 1018 hPa | 0 mm | - | 462 W/m² | - |
| 1787517703 | 26.11° C | 46% | 1017.9 hPa | 0 mm | - | 487 W/m² | - |
| 1787517399 | 25.56° C | 46% | 1018.2 hPa | 0 mm | - | 471 W/m² | - |
| 1787517096 | 26.11° C | 46% | 1018.3 hPa | 0 mm | - | 462 W/m² | - |
| 1787516794 | 26.11° C | 44% | 1018.2 hPa | 0 mm | - | 463 W/m² | - |
| 1787516490 | 25.56° C | 45% | 1018.4 hPa | 0 mm | - | 475 W/m² | - |
| 1787516185 | 25.56° C | 46% | 1018.2 hPa | 0 mm | - | 462 W/m² | - |
| 1787515879 | 25.56° C | 47% | 1018.3 hPa | 0 mm | - | 470 W/m² | - |
| 1787515575 | 25.56° C | 46% | 1018.4 hPa | 0 mm | - | 487 W/m² | - |
| 1787515275 | 25.56° C | 46% | 1018.5 hPa | 0 mm | - | 497 W/m² | - |
| 1787514970 | 26.11° C | 47% | 1018.6 hPa | 0 mm | - | 509 W/m² | - |
| 1787514667 | 25.56° C | 47% | 1018.6 hPa | 0 mm | - | 531 W/m² | - |
* Rain latest hour (hover to see other rain measurements)
** Current wind speed in m/s (hover to see current wind gust speed)